User: anonymous   Login
Location: Caltech
(34.1382°N, 118.1253°W)
Time: 04:51:01
(UTC-08:00)
Language:

Hamsat - Orbit

View from above orbital plane
View from above orbital plane
View from above satellite
View from above satellite

Ground track
Ground track

The orbit data is extracted from the following two-line orbital elements,

1 28650U 05017B   17015.50175748  .00000212  00000-0  28471-4 0  9996
2 28650  97.6328 355.1997 0022120 276.7883  83.0817 14.88537400633453
Epoch (UTC): 15 January 2017 12:02:31
Eccentricity: 0.0022120
inclination: 97.6328°
perigee height: 587 km
apogee height: 618 km
right ascension of ascending node: 355.1997°
argument of perigee: 276.7883°
revolutions per day: 14.88537400
mean anomaly at epoch: 83.0817°
orbit number at epoch: 63345

The dashed part of the orbit path shows where the satellite is in the earth's shadow,  

DLR